Tracking 23762 objects as of 22-Oct-2021
HD Live streaming from Space Station
objects crossing your sky now

SPARC-1

Track SPARC-1 now!
10-day predictions


NORAD ID: 44226
Int'l Code: 2019-026B
Perigee: 492.0 km
Apogee: 504.8 km
Inclination: 40.0 °
Period: 94.4 minutes
Semi major axis: 6869 km
RCS: Unknown
Launch date: May 5, 2019
Source: United States (US)
Launch site: Rocket Lab Launch Complex (RLLC)
aabbcc
Your satellite tracking list
Your tracking list is empty




NASA's NSSDC Master Catalog

Two Line Element Set (TLE):
1 44226U 19026B   21294.54889970  .00004244  00000-0  17446-3 0  9993
2 44226  40.0179 349.3105 0009372  91.3565 268.8311 15.24841429137253
Source of the keplerian elements: AFSPC